Mesquite, TX

3:46 AM CDT on August 30, 2016 (GMT -0500)
Mesquite Metro

Weather History for KHQZ - November, 2013

Change the Weather History Date:

Saturday, November 2, 2013

  Actual Average (KDFW) Record (KDFW)
Temperature  
Mean Temperature 56 °F 62 °F  
Max Temperature 66 °F 73 °F 87 °F (2012)
Min Temperature 44 °F 51 °F 28 °F (1991)
Degree Days  
Heating Degree Days 9 5  
Month to date heating degree days 10  
Since 1 July heating degree days 82  
Cooling Degree Days 0 2  
Month to date cooling degree days 4  
Year to date cooling degree days 2727  
Growing Degree Days 6 (Base 50)    
Moisture  
Dew Point 37 °F    
Average Humidity 50    
Maximum Humidity 77    
Minimum Humidity 27    
Precipitation  
Precipitation 0.00 in 0.12 in 2.75 in (1946)
Month to date precipitation 0.24  
Year to date precipitation 31.12  
Snow  
Snow 0.00 in 0.00 in 0.60 in (1951)
Month to date snowfall 0.0  
Since 1 July snowfall 0.0  
Since 1 September snowfall 0.0  
Snow Depth -    
Sea Level Pressure  
Sea Level Pressure 30.21 in    
Wind  
Wind Speed 7 mph (NNW)    
Max Wind Speed 16 mph    
Max Gust Speed 23 mph    
Visibility 10 miles    
Events      
T = Trace of Precipitation, MM = Missing Value Source: NWS Daily Summary

Daily Weather History Graph

Daily Weather History Graph

Search for Another Location

Airport or City:

Trip Planner

Search our weather history database for the weather conditions in past years. The results will help you decide how hot, cold, wet, or windy it might be!

Date:

Astronomy

Nov. 02, 2013 Rise Set
Actual Time 7:44 AM CDT 6:34 PM CDT
Civil Twilight 7:19 AM CDT 6:59 PM CDT
Nautical Twilight 6:50 AM CDT 7:28 PM CDT
Astronomical Twilight 6:21 AM CDT 7:57 PM CDT
Moon 6:45 AM CDT (11/2) 6:05 PM CDT (11/2)
Length of Visible Light 11h 40m
Length of Day
10h 49m
Waning Crescent, 1% of the Moon is Illuminated
Nov 2
Waning Crescent
Nov 3
New
Nov 9
First Quarter
Nov 17
Full
Nov 25
Last Quarter

Hourly Weather History & Observations

Time (CDT) Temp. Dew Point Humidity Pressure Visibility Wind Dir Wind Speed Gust Speed Precip Events Conditions
12:15 AM 61.3 °F 40.1 °F 46% 30.09 in 10.0 mi NNW 12.7 mph 23.0 mph N/A   Clear
12:35 AM 60.8 °F 40.1 °F 46% 30.09 in 10.0 mi North 10.4 mph 17.3 mph N/A   Clear
12:55 AM 60.1 °F 40.3 °F 48% 30.09 in 10.0 mi North 11.5 mph - N/A   Clear
1:15 AM 59.4 °F 40.1 °F 49% 30.10 in 10.0 mi NNW 8.1 mph - N/A   Clear
1:35 AM 58.1 °F 40.5 °F 52% 30.11 in 10.0 mi NNW 10.4 mph - N/A   Clear
1:55 AM 57.4 °F 40.3 °F 53% 30.11 in 10.0 mi NNW 8.1 mph - N/A   Clear
2:15 AM 56.7 °F 41.0 °F 56% 30.12 in 10.0 mi NNW 8.1 mph - N/A   Clear
2:35 AM 55.4 °F 41.0 °F 58% 30.13 in 10.0 mi NNW 6.9 mph - N/A   Clear
2:55 AM 54.3 °F 41.0 °F 61% 30.14 in 10.0 mi NNW 4.6 mph - N/A   Clear
3:15 AM 53.6 °F 41.0 °F 62% 30.14 in 10.0 mi NNW 4.6 mph - N/A   Clear
3:35 AM 53.4 °F 40.8 °F 62% 30.14 in 10.0 mi NNW 3.5 mph - N/A   Clear
3:55 AM 53.1 °F 40.5 °F 62% 30.14 in 10.0 mi NW 4.6 mph - N/A   Clear
4:15 AM 52.5 °F 40.5 °F 64% 30.15 in 10.0 mi Calm Calm - N/A   Clear
4:35 AM 52.3 °F 40.3 °F 64% 30.16 in 10.0 mi North 3.5 mph - N/A   Clear
4:55 AM 52.2 °F 39.9 °F 63% 30.16 in 10.0 mi NNW 3.5 mph - N/A   Clear
5:15 AM 50.9 °F 40.1 °F 67% 30.17 in 10.0 mi Calm Calm - N/A   Clear
5:35 AM 50.7 °F 40.6 °F 68% 30.18 in 10.0 mi Calm Calm - N/A   Clear
5:55 AM 50.2 °F 40.6 °F 70% 30.18 in 10.0 mi Calm Calm - N/A   Clear
6:15 AM 50.0 °F 41.0 °F 71% 30.19 in 10.0 mi Calm Calm - N/A   Clear
6:35 AM 49.8 °F 40.8 °F 71% 30.20 in 10.0 mi Calm Calm - N/A   Clear
6:55 AM 49.3 °F 40.5 °F 72% 30.21 in 10.0 mi Calm Calm - N/A   Clear
7:15 AM 48.6 °F 40.3 °F 73% 30.22 in 10.0 mi NW 6.9 mph - N/A   Clear
7:35 AM 49.5 °F 39.4 °F 68% 30.22 in 10.0 mi NNW 6.9 mph - N/A   Clear
7:55 AM 48.7 °F 39.2 °F 70% 30.23 in 10.0 mi NNW 5.8 mph - N/A   Clear
8:15 AM 49.1 °F 39.2 °F 69% 30.24 in 10.0 mi NNW 8.1 mph - N/A   Clear
8:35 AM 50.9 °F 39.2 °F 64% 30.25 in 10.0 mi NNW 8.1 mph - N/A   Clear
8:55 AM 52.9 °F 40.1 °F 62% 30.26 in 10.0 mi North 9.2 mph - N/A   Clear
9:15 AM 54.5 °F 39.4 °F 57% 30.27 in 10.0 mi NNW 13.8 mph 17.3 mph N/A   Clear
9:35 AM 55.6 °F 39.4 °F 55% 30.28 in 10.0 mi North 13.8 mph - N/A   Clear
9:55 AM 56.5 °F 38.3 °F 51% 30.29 in 10.0 mi North 12.7 mph 19.6 mph N/A   Clear
10:15 AM 58.1 °F 36.3 °F 44% 30.29 in 10.0 mi North 13.8 mph 20.7 mph N/A   Clear
10:35 AM 59.2 °F 35.2 °F 41% 30.29 in 10.0 mi North 16.1 mph 20.7 mph N/A   Clear
10:55 AM 59.5 °F 34.2 °F 39% 30.30 in 10.0 mi North 11.5 mph - N/A   Clear
12:15 PM 62.1 °F 34.5 °F 36% 30.29 in 10.0 mi North 12.7 mph 19.6 mph N/A   Clear
12:35 PM 62.6 °F 33.4 °F 34% 30.29 in 10.0 mi North 12.7 mph - N/A   Clear
12:55 PM 63.7 °F 34.5 °F 34% 30.28 in 10.0 mi North 15.0 mph 18.4 mph N/A   Clear
1:15 PM 64.4 °F 31.3 °F 29% 30.27 in 10.0 mi North 11.5 mph 21.9 mph N/A   Clear
1:35 PM 64.8 °F 30.9 °F 28% 30.26 in 10.0 mi North 11.5 mph 21.9 mph N/A   Clear
1:55 PM 65.1 °F 31.5 °F 28% 30.26 in 10.0 mi North 10.4 mph - N/A   Clear
2:15 PM 65.3 °F 31.6 °F 28% 30.25 in 10.0 mi North 12.7 mph 19.6 mph N/A   Clear
2:35 PM 65.7 °F 31.3 °F 28% 30.24 in 10.0 mi NNW 11.5 mph 20.7 mph N/A   Clear
2:55 PM 65.7 °F 31.3 °F 28% 30.24 in 10.0 mi NNW 15.0 mph - N/A   Clear
3:15 PM 66.0 °F 32.0 °F 28% 30.23 in 10.0 mi North 10.4 mph 19.6 mph N/A   Clear
3:35 PM 66.2 °F 31.5 °F 27% 30.22 in 10.0 mi North 15.0 mph 19.6 mph N/A   Clear
3:55 PM 65.7 °F 30.6 °F 27% 30.22 in 10.0 mi NNW 8.1 mph - N/A   Clear
4:15 PM 66.2 °F 32.2 °F 28% 30.21 in 10.0 mi North 11.5 mph - N/A   Clear
4:35 PM 66.0 °F 31.6 °F 28% 30.21 in 10.0 mi North 8.1 mph - N/A   Clear
4:55 PM 65.7 °F 31.8 °F 28% 30.21 in 10.0 mi NNW 8.1 mph - N/A   Clear
5:15 PM 65.3 °F 31.8 °F 29% 30.21 in 10.0 mi NNW 5.8 mph - N/A   Clear
5:35 PM 64.8 °F 31.8 °F 29% 30.20 in 10.0 mi NNW 9.2 mph - N/A   Clear
5:55 PM 64.0 °F 32.2 °F 30% 30.20 in 10.0 mi NNW 9.2 mph - N/A   Clear
6:15 PM 62.6 °F 32.4 °F 32% 30.20 in 10.0 mi NNW 6.9 mph - N/A   Clear
6:35 PM 61.0 °F 32.4 °F 34% 30.21 in 10.0 mi NNW 4.6 mph - N/A   Clear
6:55 PM 58.6 °F 33.6 °F 39% 30.21 in 10.0 mi NW 3.5 mph - N/A   Clear
7:15 PM 58.3 °F 33.3 °F 39% 30.21 in 10.0 mi Calm Calm - N/A   Clear
7:35 PM 56.5 °F 34.7 °F 44% 30.21 in 10.0 mi NW 3.5 mph - N/A   Clear
7:55 PM 55.8 °F 34.3 °F 44% 30.22 in 10.0 mi NW 3.5 mph - N/A   Clear
8:15 PM 55.4 °F 34.2 °F 45% 30.22 in 5.0 mi Calm Calm - N/A   Clear
8:35 PM 54.1 °F 35.2 °F 49% 30.23 in 10.0 mi Calm Calm - N/A   Clear
8:55 PM 55.9 °F 34.2 °F 44% 30.23 in 10.0 mi Calm Calm - N/A   Clear
9:15 PM 51.3 °F 39.6 °F 64% 30.23 in 10.0 mi Calm Calm - N/A   Clear
9:35 PM 51.8 °F 37.8 °F 59% 30.24 in 10.0 mi Calm Calm - N/A   Clear
9:55 PM 48.9 °F 38.5 °F 67% 30.24 in 10.0 mi Calm Calm - N/A   Clear
10:15 PM 49.8 °F 38.3 °F 65% 30.24 in 10.0 mi Calm Calm - N/A   Clear
10:35 PM 47.3 °F 39.4 °F 74% 30.24 in 7.0 mi Calm Calm - N/A   Clear
10:55 PM 46.9 °F 38.3 °F 72% 30.24 in 7.0 mi Calm Calm - N/A   Clear
11:15 PM 47.3 °F 38.1 °F 70% 30.24 in 10.0 mi Calm Calm - N/A   Clear
11:35 PM 46.8 °F 38.7 °F 73% 30.24 in 10.0 mi Calm Calm - N/A   Clear
11:55 PM 44.8 °F 37.9 °F 77% 30.23 in 10.0 mi Calm Calm - N/A   Clear